User: anonymous   Login
Location: Mauna Kea VIS
(19.7591°N, 155.4561°W)
Time: 18:45:40
(UTC-10:00)
Language:

Cosmos 1624 Rocket - Orbit

View from above orbital plane
View from above orbital plane
View from above satellite
View from above satellite

Ground track
Ground track

The orbit data is extracted from the following two-line orbital elements,

1 15483U 85006B   15242.84363731  .00000072  00000-0  33859-4 0  9990
2 15483 074.0453 119.7003 0019886 262.7153 170.0564 14.36048378602336
Epoch (UTC): 30 August 2015 20:14:50
Eccentricity: 0.0019886
inclination: 74.0453°
perigee height: 757 km
apogee height: 786 km
right ascension of ascending node: 119.7003°
argument of perigee: 262.7153°
revolutions per day: 14.36048378
mean anomaly at epoch: 170.0564°
orbit number at epoch: 60233

The dashed part of the orbit path shows where the satellite is in the earth's shadow,  

DLR